Location: Waning Moon II Observatory
(30.3730°N, 89.7620°W)
Time: 14:30:03
(UTC-05:00)

Cosmos 1825 Rocket - Visible Passes

Search period start: 06 May 2015 00:00
Search period end: 16 May 2015 00:00
Orbit: 605 x 632 km, 82.5° (Epoch: 05 May)

Date Brightness Start Highest point End Pass type
(mag) Time Alt. Az. Time Alt. Az. Time Alt. Az.
10 May 6.5 23:20:31 12° N 23:20:31 12° N 23:20:53 10° N visible
11 May 6.5 23:37:15 13° NNW 23:37:15 13° NNW 23:37:46 10° NNW visible
12 May 6.7 23:53:56 11° NNW 23:53:56 11° NNW 23:54:07 10° NNW visible
13 May 5.9 22:33:29 16° NNE 22:33:29 16° NNE 22:34:28 10° NNE visible
14 May 5.7 22:50:07 22° N 22:50:07 22° N 22:51:44 10° N visible
15 May 5.8 23:06:43 22° NNW 23:06:43 22° NNW 23:08:36 10° NNW visible
